This is the latest recevied weather packets stored in our database for station/object WS4FSC-7. If no packets are shown the sender has not sent any weather packets the latest 10 day(s).
| Time | Temp. | Humidity | Pressure | Rain* | Wind** | Luminosity | Snow |
|---|---|---|---|---|---|---|---|
| 1788120530 | 31.11° C | 73% | 1015 hPa | - | - | 604 W/m² | - |
| 1788120350 | 31.11° C | 73% | 1015 hPa | - | - | 618 W/m² | - |
| 1788120075 | 31.67° C | 71% | 1015 hPa | - | - | 678 W/m² | - |
| 1788119993 | 31.67° C | 71% | 1015 hPa | - | - | 678 W/m² | - |
| 1788119782 | 31.11° C | 72% | 1015 hPa | - | - | 723 W/m² | - |
| 1788119631 | 31.11° C | 72% | 1015 hPa | - | - | 723 W/m² | - |
| 1788119451 | 31.67° C | 70% | 1015 hPa | - | - | 568 W/m² | - |
| 1788119382 | 31.67° C | 70% | 1015 hPa | - | - | 630 W/m² | - |
| 1788119271 | 31.67° C | 70% | 1015 hPa | - | - | 630 W/m² | - |
| 1788118731 | 31.67° C | 70% | 1015 hPa | - | - | 817 W/m² | - |
| 1788118551 | 31.67° C | 68% | 1015 hPa | - | - | 688 W/m² | - |
| 1788118371 | 31.67° C | 70% | 1015 hPa | - | - | 653 W/m² | - |
| 1788118341 | 31.67° C | 70% | 1015 hPa | - | - | 757 W/m² | - |
| 1788118191 | 31.67° C | 70% | 1015 hPa | - | - | 757 W/m² | - |
| 1788117831 | 31.67° C | 71% | 1015 hPa | - | - | 742 W/m² | - |
| 1788116930 | 31.11° C | 72% | 1015 hPa | - | - | 791 W/m² | - |
| 1788116571 | 31.11° C | 70% | 1015 hPa | - | - | 862 W/m² | - |
| 1788116031 | 31.11° C | 70% | 1015 hPa | - | - | 659 W/m² | - |
| 1788115852 | 31.11° C | 70% | 1015 hPa | - | - | 712 W/m² | - |
| 1788115671 | 31.11° C | 73% | 1015 hPa | - | - | 668 W/m² | - |
| 1788115518 | 30.56° C | 71% | 1016 hPa | - | - | 905 W/m² | - |
| 1788115311 | 30.56° C | 71% | 1016 hPa | - | - | 905 W/m² | - |
| 1788114951 | 30.56° C | 70% | 1016 hPa | - | - | 612 W/m² | - |
| 1788114771 | 30.56° C | 71% | 1016 hPa | - | - | 536 W/m² | - |
| 1788114590 | 30.56° C | 68% | 1016 hPa | - | - | 662 W/m² | - |
* Rain since midnight (hover to see other rain measurements)
** Current wind speed in m/s (hover to see current wind gust speed)